Time,TemperatureF,DewpointF,PressureIn,WindDirection,WindDirectionDegrees,WindSpeedMPH,WindSpeedGustMPH,Humidity,HourlyPrecipIn,Conditions,Clouds,dailyrainin,SolarRadiationWatts/m^2,SoftwareType,DateUTC
2013-04-27 00:00:00,43.0,33.0,-100.00,SW,214,13.0,24.0,67,0.00,,,0.00,0.000000,,2013-04-27 07:00:00,
2013-04-27 00:22:00,43.0,33.0,-100.00,SW,214,13.0,24.0,67,0.00,,,0.00,0.000000,,2013-04-27 07:22:00,
2013-04-27 00:32:00,43.0,33.0,-100.00,SW,214,13.0,24.0,67,0.00,,,0.00,0.000000,,2013-04-27 07:32:00,
2013-04-27 00:42:00,43.0,33.0,-100.00,SW,214,13.0,24.0,67,0.00,,,0.00,0.000000,,2013-04-27 07:42:00,
2013-04-27 00:52:00,43.0,33.0,-100.00,SW,214,13.0,24.0,67,0.00,,,0.00,0.000000,,2013-04-27 07:52:00,
2013-04-27 01:00:00,42.0,34.0,-100.00,SSW,213,15.0,23.0,74,0.00,,,0.00,0.000000,,2013-04-27 08:00:00,
2013-04-27 01:22:00,42.0,34.0,-100.00,SSW,213,15.0,23.0,74,0.00,,,0.00,0.000000,,2013-04-27 08:22:00,
2013-04-27 01:33:00,42.0,34.0,-100.00,SSW,213,15.0,23.0,74,0.00,,,0.00,0.000000,,2013-04-27 08:33:00,
2013-04-27 01:42:00,42.0,34.0,-100.00,SSW,213,15.0,23.0,74,0.00,,,0.00,0.000000,,2013-04-27 08:42:00,
2013-04-27 01:52:00,42.0,34.0,-100.00,SSW,213,15.0,23.0,74,0.00,,,0.00,0.000000,,2013-04-27 08:52:00,
2013-04-27 02:00:00,39.0,34.0,-100.00,SSW,212,15.0,23.0,81,0.00,,,-99.99,0.000000,,2013-04-27 09:00:00,
2013-04-27 02:33:00,39.0,34.0,-100.00,SSW,212,15.0,23.0,81,0.00,,,-99.99,0.000000,,2013-04-27 09:33:00,
2013-04-27 02:43:00,39.0,34.0,-100.00,SSW,212,15.0,23.0,81,0.00,,,-99.99,0.000000,,2013-04-27 09:43:00,
2013-04-27 02:53:00,39.0,34.0,-100.00,SSW,212,15.0,23.0,81,0.00,,,-99.99,0.000000,,2013-04-27 09:53:00,
2013-04-27 03:00:00,39.0,34.0,-100.00,SW,214,16.0,26.0,82,0.00,,,0.00,0.000000,,2013-04-27 10:00:00,
2013-04-27 03:33:00,39.0,34.0,-100.00,SW,214,16.0,26.0,82,0.00,,,0.00,0.000000,,2013-04-27 10:33:00,
2013-04-27 03:42:00,39.0,34.0,-100.00,SW,214,16.0,26.0,82,0.00,,,0.00,0.000000,,2013-04-27 10:42:00,
2013-04-27 03:52:00,39.0,34.0,-100.00,SW,214,16.0,26.0,82,0.00,,,0.00,0.000000,,2013-04-27 10:52:00,
2013-04-27 04:00:00,40.0,38.0,-100.00,SSW,212,15.0,26.0,91,0.00,,,0.00,0.000000,,2013-04-27 11:00:00,
2013-04-27 04:32:00,40.0,38.0,-100.00,SSW,212,15.0,26.0,91,0.00,,,0.00,0.000000,,2013-04-27 11:32:00,
2013-04-27 04:42:00,40.0,38.0,-100.00,SSW,212,15.0,26.0,91,0.00,,,0.00,0.000000,,2013-04-27 11:42:00,
2013-04-27 04:52:00,40.0,38.0,-100.00,SSW,212,15.0,26.0,91,0.00,,,0.00,0.000000,,2013-04-27 11:52:00,
2013-04-27 05:00:00,40.0,38.0,-100.00,SSW,210,14.0,22.0,93,0.00,,,0.00,0.000000,,2013-04-27 12:00:00,
2013-04-27 05:32:00,40.0,38.0,-100.00,SSW,210,14.0,22.0,93,0.00,,,0.00,0.000000,,2013-04-27 12:32:00,
2013-04-27 05:42:00,40.0,38.0,-100.00,SSW,210,14.0,22.0,93,0.00,,,0.00,0.000000,,2013-04-27 12:42:00,
2013-04-27 05:52:00,40.0,38.0,-100.00,SSW,210,14.0,22.0,93,0.00,,,0.00,0.000000,,2013-04-27 12:52:00,
2013-04-27 06:00:00,39.0,37.0,-100.00,SSW,213,16.0,25.0,94,0.00,,,-99.99,0.000000,,2013-04-27 13:00:00,
2013-04-27 06:32:00,39.0,37.0,-100.00,SSW,213,16.0,25.0,94,0.00,,,-99.99,0.000000,,2013-04-27 13:32:00,
2013-04-27 06:42:00,39.0,37.0,-100.00,SSW,213,16.0,25.0,94,0.00,,,-99.99,0.000000,,2013-04-27 13:42:00,
2013-04-27 06:52:00,39.0,37.0,-100.00,SSW,213,16.0,25.0,94,0.00,,,-99.99,0.000000,,2013-04-27 13:52:00,
2013-04-27 07:00:00,41.0,40.0,-100.00,SSW,207,18.0,35.0,95,0.00,,,0.00,6.000000,,2013-04-27 14:00:00,
2013-04-27 07:32:00,41.0,40.0,-100.00,SSW,207,18.0,35.0,95,0.00,,,0.00,6.000000,,2013-04-27 14:32:00,
2013-04-27 07:42:00,41.0,40.0,-100.00,SSW,207,18.0,35.0,95,0.00,,,0.00,6.000000,,2013-04-27 14:42:00,
2013-04-27 07:52:00,41.0,40.0,-100.00,SSW,207,18.0,35.0,95,0.00,,,0.00,6.000000,,2013-04-27 14:52:00,
2013-04-27 08:00:00,42.0,41.0,-100.00,SSW,210,19.0,30.0,96,0.00,,,0.00,26.000000,,2013-04-27 15:00:00,
2013-04-27 08:33:00,42.0,41.0,-100.00,SSW,210,19.0,30.0,96,0.00,,,0.00,26.000000,,2013-04-27 15:33:00,
2013-04-27 08:43:00,42.0,41.0,-100.00,SSW,210,19.0,30.0,96,0.00,,,0.00,26.000000,,2013-04-27 15:43:00,
2013-04-27 08:53:00,42.0,41.0,-100.00,SSW,210,19.0,30.0,96,0.00,,,0.00,26.000000,,2013-04-27 15:53:00,
2013-04-27 09:00:00,42.0,41.0,-100.00,SSW,210,19.0,37.0,97,0.00,,,0.00,40.000000,,2013-04-27 16:00:00,
2013-04-27 09:23:00,42.0,41.0,-100.00,SSW,210,19.0,37.0,97,0.00,,,0.00,40.000000,,2013-04-27 16:23:00,
2013-04-27 09:33:00,42.0,41.0,-100.00,SSW,210,19.0,37.0,97,0.00,,,0.00,40.000000,,2013-04-27 16:33:00,
2013-04-27 09:42:00,42.0,41.0,-100.00,SSW,210,19.0,37.0,97,0.00,,,0.00,40.000000,,2013-04-27 16:42:00,
2013-04-27 09:52:00,42.0,41.0,-100.00,SSW,210,19.0,37.0,97,0.00,,,0.00,40.000000,,2013-04-27 16:52:00,
2013-04-27 10:00:00,42.0,41.0,-100.00,SSW,210,19.0,32.0,97,0.00,,,0.00,58.000000,,2013-04-27 17:00:00,
2013-04-27 10:32:00,42.0,41.0,-100.00,SSW,210,19.0,32.0,97,0.00,,,0.00,58.000000,,2013-04-27 17:32:00,
2013-04-27 10:42:00,42.0,41.0,-100.00,SSW,210,19.0,32.0,97,0.00,,,0.00,58.000000,,2013-04-27 17:42:00,
2013-04-27 10:53:00,42.0,41.0,-100.00,SSW,210,19.0,32.0,97,0.00,,,0.00,58.000000,,2013-04-27 17:53:00,
2013-04-27 11:00:00,41.0,40.0,-100.00,SSW,206,19.0,33.0,98,0.02,,,0.02,59.000000,,2013-04-27 18:00:00,
2013-04-27 11:22:00,41.0,40.0,-100.00,SSW,206,19.0,33.0,98,0.02,,,0.02,59.000000,,2013-04-27 18:22:00,
2013-04-27 11:32:00,41.0,40.0,-100.00,SSW,206,19.0,33.0,98,0.02,,,0.02,59.000000,,2013-04-27 18:32:00,
2013-04-27 11:42:00,41.0,40.0,-100.00,SSW,206,19.0,33.0,98,0.02,,,0.02,59.000000,,2013-04-27 18:42:00,
2013-04-27 11:52:00,41.0,40.0,-100.00,SSW,206,19.0,33.0,98,0.02,,,0.02,59.000000,,2013-04-27 18:52:00,
2013-04-27 12:00:00,43.0,42.0,-100.00,SSW,208,18.0,33.0,98,0.02,,,0.04,92.000000,,2013-04-27 19:00:00,
2013-04-27 12:22:00,43.0,42.0,-100.00,SSW,208,18.0,33.0,98,0.02,,,0.04,92.000000,,2013-04-27 19:22:00,
2013-04-27 12:32:00,43.0,42.0,-100.00,SSW,208,18.0,33.0,98,0.02,,,0.04,92.000000,,2013-04-27 19:32:00,
2013-04-27 12:42:00,43.0,42.0,-100.00,SSW,208,18.0,33.0,98,0.02,,,0.04,92.000000,,2013-04-27 19:42:00,
2013-04-27 12:52:00,43.0,42.0,-100.00,SSW,208,18.0,33.0,98,0.02,,,0.04,92.000000,,2013-04-27 19:52:00,
2013-04-27 13:00:00,42.0,41.0,-100.00,SSW,209,19.0,32.0,98,0.02,,,0.06,126.000000,,2013-04-27 20:00:00,
2013-04-27 13:32:00,42.0,41.0,-100.00,SSW,209,19.0,32.0,98,0.02,,,0.06,126.000000,,2013-04-27 20:32:00,
2013-04-27 13:42:00,42.0,41.0,-100.00,SSW,209,19.0,32.0,98,0.02,,,0.06,126.000000,,2013-04-27 20:42:00,
2013-04-27 13:52:00,42.0,41.0,-100.00,SSW,209,19.0,32.0,98,0.02,,,0.06,126.000000,,2013-04-27 20:52:00,
2013-04-27 14:00:00,43.0,43.0,-100.00,SSW,209,17.0,30.0,99,0.02,,,0.08,131.000000,,2013-04-27 21:00:00,
2013-04-27 14:22:00,43.0,43.0,-100.00,SSW,209,17.0,30.0,99,0.02,,,0.08,131.000000,,2013-04-27 21:22:00,
2013-04-27 14:33:00,43.0,43.0,-100.00,SSW,209,17.0,30.0,99,0.02,,,0.08,131.000000,,2013-04-27 21:33:00,
2013-04-27 14:43:00,43.0,43.0,-100.00,SSW,209,17.0,30.0,99,0.02,,,0.08,131.000000,,2013-04-27 21:43:00,
2013-04-27 14:53:00,43.0,43.0,-100.00,SSW,209,17.0,30.0,99,0.02,,,0.08,131.000000,,2013-04-27 21:53:00,
2013-04-27 15:00:00,43.0,43.0,-100.00,SSW,208,14.0,28.0,99,0.03,,,0.11,141.000000,,2013-04-27 22:00:00,
2013-04-27 15:32:00,43.0,43.0,-100.00,SSW,208,14.0,28.0,99,0.03,,,0.11,141.000000,,2013-04-27 22:32:00,
2013-04-27 15:42:00,43.0,43.0,-100.00,SSW,208,14.0,28.0,99,0.03,,,0.11,141.000000,,2013-04-27 22:42:00,
2013-04-27 15:52:00,43.0,43.0,-100.00,SSW,208,14.0,28.0,99,0.03,,,0.11,141.000000,,2013-04-27 22:52:00,
2013-04-27 16:00:00,42.0,42.0,-100.00,SSW,210,13.0,24.0,99,0.03,,,0.14,119.000000,,2013-04-27 23:00:00,
2013-04-27 16:22:00,42.0,42.0,-100.00,SSW,210,13.0,24.0,99,0.03,,,0.14,119.000000,,2013-04-27 23:22:00,
2013-04-27 16:32:00,42.0,42.0,-100.00,SSW,210,13.0,24.0,99,0.03,,,0.14,119.000000,,2013-04-27 23:32:00,
2013-04-27 16:42:00,42.0,42.0,-100.00,SSW,210,13.0,24.0,99,0.03,,,0.14,119.000000,,2013-04-27 23:42:00,
2013-04-27 16:52:00,42.0,42.0,-100.00,SSW,210,13.0,24.0,99,0.03,,,0.14,119.000000,,2013-04-27 23:52:00,
2013-04-27 17:00:00,42.0,42.0,-100.00,SSW,212,11.0,21.0,99,0.01,,,0.15,88.000000,,2013-04-28 00:00:00,
2013-04-27 17:22:00,42.0,42.0,-100.00,SSW,212,11.0,21.0,99,0.01,,,0.15,88.000000,,2013-04-28 00:22:00,
2013-04-27 17:32:00,42.0,42.0,-100.00,SSW,212,11.0,21.0,99,0.01,,,0.15,88.000000,,2013-04-28 00:32:00,
2013-04-27 17:43:00,42.0,42.0,-100.00,SSW,212,11.0,21.0,99,0.01,,,0.15,88.000000,,2013-04-28 00:43:00,
2013-04-27 17:52:00,42.0,42.0,-100.00,SSW,212,11.0,21.0,99,0.01,,,0.15,88.000000,,2013-04-28 00:52:00,
2013-04-27 18:00:00,43.0,43.0,-100.00,SW,218,11.0,24.0,100,0.01,,,0.16,53.000000,,2013-04-28 01:00:00,
2013-04-27 18:22:00,43.0,43.0,-100.00,SW,218,11.0,24.0,100,0.01,,,0.16,53.000000,,2013-04-28 01:22:00,
2013-04-27 18:32:00,43.0,43.0,-100.00,SW,218,11.0,24.0,100,0.01,,,0.16,53.000000,,2013-04-28 01:32:00,
2013-04-27 18:42:00,43.0,43.0,-100.00,SW,218,11.0,24.0,100,0.01,,,0.16,53.000000,,2013-04-28 01:42:00,
2013-04-27 18:52:00,43.0,43.0,-100.00,SW,218,11.0,24.0,100,0.01,,,0.16,53.000000,,2013-04-28 01:52:00,
2013-04-27 19:00:00,43.0,43.0,-100.00,SSW,213,11.0,19.0,100,0.01,,,0.17,32.000000,,2013-04-28 02:00:00,
2013-04-27 19:32:00,43.0,43.0,-100.00,SSW,213,11.0,19.0,100,0.01,,,0.17,32.000000,,2013-04-28 02:32:00,
2013-04-27 19:42:00,43.0,43.0,-100.00,SSW,213,11.0,19.0,100,0.01,,,0.17,32.000000,,2013-04-28 02:42:00,
2013-04-27 19:52:00,43.0,43.0,-100.00,SSW,213,11.0,19.0,100,0.01,,,0.17,32.000000,,2013-04-28 02:52:00,
2013-04-27 20:00:00,42.0,42.0,-100.00,SW,214,12.0,21.0,100,0.01,,,0.18,17.000000,,2013-04-28 03:00:00,
2013-04-27 20:22:00,42.0,42.0,-100.00,SW,214,12.0,21.0,100,0.01,,,0.18,17.000000,,2013-04-28 03:22:00,
2013-04-27 20:33:00,42.0,42.0,-100.00,SW,214,12.0,21.0,100,0.01,,,0.18,17.000000,,2013-04-28 03:33:00,
2013-04-27 20:43:00,42.0,42.0,-100.00,SW,214,12.0,21.0,100,0.01,,,0.18,17.000000,,2013-04-28 03:43:00,
2013-04-27 20:53:00,42.0,42.0,-100.00,SW,214,12.0,21.0,100,0.01,,,0.18,17.000000,,2013-04-28 03:53:00,
2013-04-27 21:00:00,42.0,42.0,-100.00,SW,216,10.0,19.0,100,0.01,,,0.19,1.000000,,2013-04-28 04:00:00,
2013-04-27 21:32:00,42.0,42.0,-100.00,SW,216,10.0,19.0,100,0.01,,,0.19,1.000000,,2013-04-28 04:32:00,
2013-04-27 21:43:00,42.0,42.0,-100.00,SW,216,10.0,19.0,100,0.01,,,0.19,1.000000,,2013-04-28 04:43:00,
2013-04-27 21:53:00,42.0,42.0,-100.00,SW,216,10.0,19.0,100,0.01,,,0.19,1.000000,,2013-04-28 04:53:00,
2013-04-27 22:00:00,42.0,42.0,-100.00,SSW,209,10.0,18.0,100,0.03,,,0.22,0.000000,,2013-04-28 05:00:00,
2013-04-27 22:22:00,42.0,42.0,-100.00,SSW,209,10.0,18.0,100,0.03,,,0.22,0.000000,,2013-04-28 05:22:00,
2013-04-27 22:32:00,42.0,42.0,-100.00,SSW,209,10.0,18.0,100,0.03,,,0.22,0.000000,,2013-04-28 05:32:00,
2013-04-27 22:42:00,42.0,42.0,-100.00,SSW,209,10.0,18.0,100,0.03,,,0.22,0.000000,,2013-04-28 05:42:00,
2013-04-27 22:52:00,42.0,42.0,-100.00,SSW,209,10.0,18.0,100,0.03,,,0.22,0.000000,,2013-04-28 05:52:00,
2013-04-27 23:00:00,41.0,41.0,-100.00,SW,215,9.0,18.0,100,0.00,,,0.22,0.000000,,2013-04-28 06:00:00,
2013-04-27 23:22:00,41.0,41.0,-100.00,SW,215,9.0,18.0,100,0.00,,,0.22,0.000000,,2013-04-28 06:22:00,
2013-04-27 23:32:00,41.0,41.0,-100.00,SW,215,9.0,18.0,100,0.00,,,0.22,0.000000,,2013-04-28 06:32:00,
2013-04-27 23:42:00,41.0,41.0,-100.00,SW,215,9.0,18.0,100,0.00,,,0.22,0.000000,,2013-04-28 06:42:00,
2013-04-27 23:52:00,41.0,41.0,-100.00,SW,215,9.0,18.0,100,0.00,,,0.22,0.000000,,2013-04-28 06:52:00,